Location: Alsip
(41.6689°N, 87.7387°W)
Time: 14:19:24
(UTC+00:00)

NOSS 3-2 (C) - Pass Details

Date: 14 July 2020
Orbit: 798 x 1415 km, 63.4° (Epoch: 01 August)

Event Time Altitude Azimuth Distance (km) Brightness Sun altitude
Exits shadow 09:19:08 - 191° (S) 2,564 5.2 -11.4°
Reaches altitude 10° 09:19:32 10° 189° (S) 2,419 5.1 -11.3°
Maximum altitude 09:24:50 48° 116° (ESE) 1,141 4.1 -10.6°
Drops below altitude 10° 09:30:46 10° 45° (NE) 2,718 7.5 -9.7°
Sets 09:33:36 0° 40° (NE) 3,765 8.6 -9.3°
